Location: Aurora Center
(43.5271°N, 98.5894°W)
Time: 03:57:04
(UTC-05:00)

A-11 Canister half - Pass Details

Date: 22 July 2024
Orbit: 1514 x 1685 km, 47.2° (Epoch: 16 July)

Event Time Altitude Azimuth Distance (km) Brightness Sun altitude
Rises 12:41:53 0° 258° (WSW) 4,833 11.5 63.5°
Reaches altitude 10° 12:44:58 10° 259° (W) 3,869 11.1 63.8°
Maximum altitude 12:54:58 78° 347° (NNW) 1,702 10.3 64.6°
Drops below altitude 10° 13:05:12 10° 74° (ENE) 3,951 11.3 65.4°
Sets 13:08:24 0° 76° (ENE) 4,939 11.7 65.6°
